Hovedside
METAR-TAF:

METAR-TAF

Lufthavner :

Enontekis, Finland

Enontekiö lufthavn

breddegrad: 68-21-52N, lengdegrad: 023-25-39E, høyde over havet: 308 m

Gjeldene værobservasjon

Denne rapporten ble laget for 39 minutter siden, klokken 11:20 UTC
Vind 2 kt fra Nordøst
Temperatur -1°C
Luftfuktighet 93%
Trykk 1022 hPa
Sikt 10 km eller mer
Overskyet i en høyde av 3600 ft

METAR: EFET 221120Z AUTO 05002KT 9999 OVC036 M01/M02 Q1022

Tid: 14:59 (11:59 UTC)


TAF: fraværende

Værobservasjoner og værvarsel for over 4000 flyplasser (METAR- og TAF-rapporter).

Tilgjengelige stasjoner er representert av de røde og gule prikkene på kartet.

Hold musepekeren over prikken for å se navnet på stasjonen.

Klikk så for å se værobservasjoner og -varsler.

For å forandre kartet kan du klikke på den grønne knappen med svart kryss for å zoome inn, på den grønne knappen med strek for å zoome ut, eller på de grønne pilene for å se tilstøtende kart.


METAR-TAF: